EW2522 Weather Reports


time (UTC)temp
F
wind
direction
speed
knots
gust
knots
rain 1hr
in
rain 24hr
in
rain mn
in
humidity
%
barometer
mb
20260906074341 50 307 0.9 9.6 0.00 0.18 0.00 74 1003.6
20260906073442 50 318 0.9 7.8 0.00 0.18 0.00 74 1003.6
20260906072541 50 292 0.9 8.7 0.00 0.18 0.00 75 1003.4
20260906071642 50 315 1.7 10.4 0.00 0.18 0.00 76 1003.2
20260906070741 49 324 1.7 8.7 0.00 0.18 0.00 75 1003.3
20260906065841 49 335 1.7 10.4 0.00 0.18 0.00 77 1003.1
20260906064941 49 327 0.9 6.1 0.00 0.18 0.00 76 1002.9
20260906064041 49 320 0.9 7.8 0.00 0.18 0.00 78 1002.8
20260906063142 48 317 1.7 9.6 0.00 0.18 0.00 78 1002.7
20260906062455 48 325 0.9 8.7 0.00 0.18 0.00 79 1002.6
20260906061552 48 313 0.9 11.3 0.00 0.18 0.00 79 1002.7
20260906060441 48 314 0.9 7.8 0.00 0.18 0.00 80 1002.6
20260906055542 48 334 0.9 8.7 0.00 0.18 0.00 79 1002.5
20260906054854 48 313 0.9 7.0 0.00 0.18 0.00 80 1002.3
20260906053741 48 337 0.9 7.0 0.00 0.18 0.00 80 1002.3
20260906052841 48 0 0.0 5.2 0.00 0.18 0.00 80 1002.2
20260906052151 48 337 0.9 9.6 0.00 0.18 0.00 80 1002.1
20260906051042 48 344 0.9 7.0 0.00 0.18 0.00 80 1002.0
20260906050142 48 335 0.9 7.8 0.00 0.18 0.00 81 1002.0
20260906045242 48 338 0.9 8.7 0.00 0.18 0.00 81 1001.9
20260906044341 48 331 0.9 8.7 0.00 0.18 0.00 82 1001.8
20260906043442 48 336 0.9 7.8 0.00 0.18 0.00 83 1001.7
20260906042541 48 337 0.9 7.0 0.00 0.18 0.00 83 1001.7
20260906041641 48 338 0.9 7.0 0.00 0.18 0.00 83 1001.7
20260906040955 48 329 0.9 9.6 0.00 0.18 0.00 83 1001.6
20260906035841 48 0 0.0 3.5 0.00 0.18 0.00 85 1001.6
20260906034942 48 0 0.0 7.8 0.00 0.18 0.00 86 1001.4
20260906034042 48 0 0.0 1.7 0.00 0.18 0.00 88 1001.4
20260906033141 48 0 0.0 5.2 0.00 0.18 0.00 88 1001.3
20260906032241 48 0 0.0 5.2 0.00 0.18 0.00 89 1001.2
20260906031554 47 0 0.0 2.6 0.00 0.18 0.00 89 1001.2
20260906030442 47 0 0.0 4.3 0.00 0.18 0.00 89 1001.2
20260906025754 47 0 0.0 3.5 0.00 0.18 0.00 89 1001.2
20260906024856 47 0 0.0 0.0 0.00 0.18 0.00 89 1001.2
20260906023742 47 0 0.0 6.1 0.00 0.18 0.00 89 1001.1
20260906022842 47 0 0.0 2.6 0.00 0.18 0.00 89 1001.1
20260906021941 47 0 0.0 2.6 0.00 0.18 0.00 89 1001.0
20260906021041 47 0 0.0 0.0 0.00 0.18 0.00 88 1001.0
20260906020353 47 0 0.0 0.0 0.00 0.18 0.00 88 1001.0
20260906015241 47 0 0.0 3.5 0.00 0.18 0.00 88 1001.0
20260906014341 47 329 0.9 6.1 0.00 0.18 0.00 87 1001.0
20260906013441 47 0 0.0 4.3 0.00 0.18 0.00 87 1000.9
20260906012542 47 317 1.7 7.0 0.00 0.18 0.00 87 1000.9
20260906011641 47 338 0.9 8.7 0.00 0.18 0.00 87 1000.8
20260906010741 47 323 1.7 9.6 0.00 0.18 0.00 87 1000.8
20260906005842 47 318 0.9 7.8 0.00 0.18 0.00 87 1000.7
20260906004942 47 313 0.9 9.6 0.00 0.18 0.00 88 1000.7
20260906004042 47 333 0.9 8.7 0.00 0.18 0.00 88 1000.6
20260906003351 47 328 0.9 8.7 0.00 0.18 0.00 88 1000.5
20260906002454 48 324 0.9 7.8 0.00 0.18 0.00 88 1000.5
20260906001342 48 324 0.9 9.6 0.00 0.18 0.00 88 1000.4
20260906000442 48 327 0.9 7.8 0.00 0.18 0.00 87 1000.3
20260905235542 48 325 0.9 7.8 0.00 0.18 0.00 87 1000.1
20260905234641 48 334 0.9 7.8 0.00 0.18 0.00 87 1000.1
20260905233742 48 336 0.9 7.8 0.00 0.18 0.00 87 1000.0
20260905232842 48 329 0.9 10.4 0.00 0.18 0.00 86 999.9
20260905231942 48 325 1.7 10.4 0.00 0.18 0.00 87 999.9
20260905231252 48 321 0.9 10.4 0.00 0.18 0.00 87 999.9
20260905225241 49 332 0.9 8.7 0.00 0.18 0.00 88 999.8
20260905224340 49 341 0.9 7.8 0.00 0.18 0.00 89 999.8
20260905223442 49 0 0.0 4.3 0.00 0.18 0.00 89 999.7
20260905222541 49 0 0.0 4.3 0.00 0.18 0.00 90 999.5
20260905221641 49 0 0.0 2.6 0.00 0.18 0.00 90 999.5
20260905220954 49 0 0.0 4.3 0.00 0.18 0.00 90 999.5
20260905215841 49 0 0.0 4.3 0.00 0.18 0.00 90 999.4
20260905215153 49 0 0.0 2.6 0.00 0.18 0.00 91 999.3
20260905214041 49 0 0.0 0.9 0.00 0.18 0.00 90 999.2
20260905213141 49 0 0.0 3.5 0.00 0.18 0.00 90 999.1
20260905212241 50 340 0.9 4.3 0.00 0.18 0.00 90 999.0
20260905211341 50 334 0.9 9.6 0.00 0.18 0.00 90 998.9
20260905210441 50 0 0.0 9.6 0.00 0.18 0.00 90 998.9
20260905205540 50 340 0.9 5.2 0.00 0.18 0.18 90 998.9
20260905204641 50 0 0.0 4.3 0.00 0.18 0.18 90 998.9
20260905203741 50 328 0.9 7.8 0.00 0.18 0.18 91 998.8
20260905203055 50 0 0.0 7.0 0.00 0.18 0.18 91 998.7
20260905201941 50 0 0.0 7.8 0.00 0.18 0.18 91 998.6
20260905201043 50 0 0.0 6.1 0.00 0.18 0.18 90 998.6
20260905200352 51 0 0.0 7.8 0.00 0.18 0.18 90 998.5
20260905195241 51 327 0.9 6.1 0.00 0.18 0.18 89 998.4
20260905194341 51 331 0.9 5.2 0.00 0.18 0.18 90 998.4
20260905193441 51 327 0.9 11.3 0.00 0.18 0.18 90 998.2
20260905192541 51 0 0.0 2.6 0.00 0.18 0.18 90 998.3
20260905191641 51 0 0.0 4.3 0.00 0.18 0.18 90 998.2
20260905190741 51 0 0.0 2.6 0.00 0.18 0.18 90 998.1
20260905185841 52 0 0.0 4.3 0.00 0.18 0.18 89 998.1
20260905184941 52 0 0.0 6.1 0.00 0.18 0.18 89 998.1
20260905184041 52 324 0.9 6.1 0.00 0.18 0.18 89 998.0
20260905183140 52 0 0.0 4.3 0.00 0.18 0.18 89 997.9
20260905182452 53 321 0.9 6.1 0.00 0.18 0.18 89 997.8
20260905181341 53 0 0.0 4.3 0.00 0.18 0.18 90 997.7
20260905180441 53 0 0.0 4.3 0.00 0.18 0.18 89 997.6
20260905175540 53 0 0.0 2.6 0.00 0.18 0.18 90 997.4
20260905174852 53 0 0.0 2.6 0.00 0.18 0.18 90 997.4
20260905173741 54 324 0.9 5.2 0.00 0.18 0.18 90 997.3
20260905173052 54 0 0.0 4.3 0.00 0.18 0.18 89 997.1
20260905171941 54 325 0.9 7.8 0.00 0.18 0.18 89 997.0
20260905171251 54 0 0.0 2.6 0.00 0.18 0.18 89 996.9
20260905170141 55 319 0.9 7.8 0.00 0.18 0.18 88 996.7
20260905165241 55 320 0.9 7.0 0.00 0.18 0.18 88 996.6
20260905164341 55 0 0.0 7.0 0.00 0.18 0.18 87 996.6
20260905163442 56 0 0.0 7.0 0.00 0.18 0.18 87 996.4
20260905162541 56 0 0.0 0.0 0.00 0.18 0.18 87 996.3
20260905161641 56 0 0.0 1.7 0.00 0.18 0.18 87 996.3
20260905160741 56 0 0.0 1.7 0.00 0.18 0.18 87 996.2
20260905155841 56 0 0.0 2.6 0.00 0.18 0.18 86 996.1
20260905154941 56 0 0.0 3.5 0.00 0.18 0.18 86 996.1
20260905154254 57 0 0.0 1.7 0.00 0.18 0.18 87 996.0
20260905153352 57 0 0.0 0.9 0.00 0.18 0.18 86 995.9
20260905152454 57 0 0.0 0.0 0.00 0.18 0.18 86 995.9
20260905151341 58 0 0.0 0.0 0.00 0.18 0.18 85 995.8
20260905150441 58 0 0.0 2.6 0.00 0.18 0.18 84 995.7
20260905145541 58 0 0.0 2.6 0.00 0.18 0.18 84 995.6
20260905144641 58 0 0.0 2.6 0.00 0.18 0.18 84 995.6
20260905143741 58 0 0.0 5.2 0.00 0.18 0.18 85 995.5
20260905142841 58 0 0.0 4.3 0.00 0.18 0.18 84 995.5
20260905141941 58 0 0.0 3.5 0.00 0.18 0.18 84 995.3
20260905141041 58 347 0.9 2.6 0.00 0.18 0.18 84 995.2
20260905140141 59 0 0.0 2.6 0.00 0.18 0.18 85 995.1
20260905135241 59 0 0.0 1.7 0.00 0.18 0.18 85 995.1
20260905134341 60 323 0.9 5.2 0.00 0.18 0.18 83 994.9
20260905133441 60 314 0.9 5.2 0.00 0.18 0.18 83 994.9
20260905132541 59 327 1.7 4.3 0.00 0.18 0.18 84 994.9
20260905131641 59 347 0.9 7.0 0.00 0.18 0.18 83 994.9
20260905130741 59 0 0.0 1.7 0.01 0.18 0.18 87 994.9
20260905125840 58 0 0.0 1.7 0.01 0.18 0.18 90 994.9
20260905124941 57 0 0.0 0.0 0.01 0.18 0.18 92 994.9
20260905124041 57 0 0.0 0.0 0.01 0.18 0.18 92 994.8
20260905123141 57 0 0.0 3.5 0.01 0.18 0.18 91 994.8
20260905122241 57 0 0.0 0.0 0.01 0.18 0.18 91 994.7
20260905121553 57 0 0.0 0.0 0.00 0.17 0.17 90 994.7
20260905120441 57 0 0.0 1.7 0.00 0.17 0.17 90 994.6
20260905115541 56 0 0.0 6.1 0.00 0.17 0.17 91 994.6
20260905114641 56 0 0.0 1.7 0.00 0.17 0.17 92 994.5
20260905113953 56 0 0.0 2.6 0.00 0.17 0.17 91 994.5
20260905112841 56 0 0.0 2.6 0.02 0.17 0.17 93 994.5
20260905111941 56 0 0.0 1.7 0.02 0.17 0.17 94 994.3
20260905111041 56 0 0.0 0.0 0.02 0.17 0.17 96 994.4
20260905110140 56 0 0.0 0.0 0.02 0.17 0.17 95 994.3
20260905105241 56 0 0.0 0.0 0.02 0.17 0.17 95 994.2
20260905104341 56 0 0.0 1.7 0.02 0.17 0.17 95 994.1
20260905103440 56 0 0.0 0.0 0.03 0.17 0.17 95 994.0
20260905102541 56 0 0.0 0.0 0.11 0.16 0.16 95 994.0
20260905101640 55 0 0.0 0.0 0.11 0.16 0.16 96 993.9
20260905100951 55 0 0.0 0.0 0.11 0.16 0.16 97 993.9
20260905095840 54 0 0.0 0.0 0.11 0.16 0.16 95 993.9
20260905094941 54 0 0.0 0.0 0.12 0.16 0.16 95 993.8
20260905094041 54 0 0.0 0.0 0.14 0.16 0.16 94 993.9
20260905093350 55 0 0.0 0.0 0.13 0.13 0.14 95 993.8
20260905092241 55 0 0.0 0.0 0.05 0.05 0.05 94 993.7
20260905091341 55 0 0.0 0.0 0.05 0.05 0.05 94 993.7
20260905090441 55 0 0.0 0.0 0.05 0.05 0.05 93 993.6
20260905085542 55 0 0.0 0.0 0.05 0.05 0.05 93 993.6
20260905084641 55 0 0.0 0.9 0.03 0.03 0.04 92 993.6
20260905083741 55 0 0.0 0.0 0.02 0.02 0.02 92 993.5
20260905082841 55 0 0.0 0.0 0.00 0.00 0.00 89 993.4
20260905081941 55 0 0.0 0.0 0.00 0.00 0.00 89 993.5
20260905081041 55 0 0.0 1.7 0.00 0.00 0.00 89 993.5
20260905080141 54 0 0.0 0.0 0.00 0.00 0.00 91 993.5
20260905075451 54 0 0.0 0.0 0.00 0.00 0.00 92 993.5